This is the latest recevied weather packets stored in our database for station/object KE4EST. If no packets are shown the sender has not sent any weather packets the latest 10 day(s).
| Time | Temp. | Humidity | Pressure | Rain* | Wind** | Luminosity | Snow |
|---|---|---|---|---|---|---|---|
| 1778006089 | 25.56° C | 35% | 1014.9 hPa | 0 mm | - | 519 W/m² | - |
| 1778005786 | 25° C | 35% | 1015 hPa | 0 mm | - | 651 W/m² | - |
| 1778005483 | 25° C | 33% | 1015 hPa | 0 mm | - | 609 W/m² | - |
| 1778005179 | 25° C | 35% | 1015.3 hPa | 0 mm | - | 638 W/m² | - |
| 1778004877 | 25° C | 35% | 1015.3 hPa | 0 mm | - | 493 W/m² | - |
| 1778004573 | 24.44° C | 37% | 1015.4 hPa | 0 mm | - | 594 W/m² | - |
| 1778004269 | 24.44° C | 33% | 1015.4 hPa | 0 mm | - | 552 W/m² | - |
| 1778003966 | 24.44° C | 35% | 1015.4 hPa | 0 mm | - | 581 W/m² | - |
| 1778003662 | 23.33° C | 35% | 1015.5 hPa | 0 mm | - | 556 W/m² | - |
| 1778003359 | 23.33° C | 35% | 1015.5 hPa | 0 mm | - | 640 W/m² | - |
| 1778003057 | 23.89° C | 36% | 1015.7 hPa | 0 mm | - | 323 W/m² | - |
| 1778002752 | 23.89° C | 39% | 1015.6 hPa | 0 mm | - | 623 W/m² | - |
| 1778002449 | 22.78° C | 42% | 1016.1 hPa | 0 mm | - | 644 W/m² | - |
| 1778002146 | 22.78° C | 43% | 1016.3 hPa | 0 mm | - | 434 W/m² | - |
| 1778001844 | 23.33° C | 44% | 1016 hPa | 0 mm | - | 374 W/m² | - |
| 1778001543 | 23.33° C | 41% | 1016.1 hPa | 0 mm | - | 446 W/m² | - |
| 1778001241 | 23.33° C | 45% | 1016.1 hPa | 0 mm | - | 427 W/m² | - |
| 1778000937 | 23.33° C | 45% | 1016.3 hPa | 0 mm | - | 224 W/m² | - |
| 1778000634 | 23.33° C | 42% | 1016.2 hPa | 0 mm | - | 214 W/m² | - |
| 1778000329 | 22.78° C | 41% | 1016.1 hPa | 0 mm | - | 594 W/m² | - |
| 1778000025 | 23.33° C | 44% | 1016.1 hPa | 0 mm | - | 201 W/m² | - |
| 1777999721 | 23.33° C | 44% | 1016.3 hPa | 0 mm | - | 311 W/m² | - |
| 1777999418 | 23.33° C | 46% | 1016.3 hPa | 0 mm | - | 289 W/m² | - |
| 1777999116 | 23.89° C | 42% | 1016.4 hPa | 0 mm | - | 271 W/m² | - |
| 1777998814 | 23.33° C | 48% | 1016.6 hPa | 0 mm | - | 205 W/m² | - |
* Rain latest hour (hover to see other rain measurements)
** Current wind speed in m/s (hover to see current wind gust speed)